Location: ???????
(55.4362°N, 38.1183°E)
Time: 19:43:30
(UTC+00:00)

M-CUBED/EXP-1 PRIME - Pass Details

Date: 08 December 2021
Orbit: 426 x 650 km, 101.7° (Epoch: 26 January)

Event Time Altitude Azimuth Distance (km) Brightness Sun altitude
Rises 04:30:20 0° 25° (NNE) 2,989 ? -9.1°
Reaches altitude 10° 04:32:40 10° 31° (NNE) 2,066 ? -8.8°
Maximum altitude 04:37:01 46° 105° (ESE) 858 ? -8.3°
Drops below altitude 10° 04:41:11 10° 180° (S) 1,979 ? -7.8°
Sets 04:43:23 0° 186° (S) 2,849 ? -7.5°
